Flag for Switzerland Weather past 2 weeks in Arth, Schwyz, Switzerland

Now
34 °F

Chilly.


Feels Like: 34 °F
Forecast: 17 / 31 °F
Wind: 1 mph from East

Location: Altdorf

Current Time: Mar 5, 2015 at 4:12:07 AM

Latest Report: Mar 5, 2015 at 3:00 AM


Visibility: N/A

Pressure: 30.55 "Hg

Humidity: 91%

Dew point: 31 °F

Location of ArthLocation

Historic Weather in Arth — Graph

°F

Arth temperature yesterday

Maximum temperature yesterday: 43 °F (at 12:00 AM)
Minimum temperature yesterday: 35 °F (at 9:00 PM)
Average temperature yesterday: 39 °F

Past Weeks' High & Low Weather Summary

 TemperatureHumidityPressure
High52 °F (Feb 21, 12:00 PM)96% (Feb 22, 3:00 AM)30.69 "Hg (Feb 22, 3:00 AM)
Low25 °F (Feb 20, 6:00 AM)18% (Feb 20, 8:00 PM)29.47 "Hg (Feb 21, 12:00 PM)
Average38 °F76%30.08 "Hg
* Reported Feb 18 2:00 AM — Mar 5 2:00 AM, Arth, Weather by CustomWeather, © 2015

Note: Actual official high and low records may vary slightly from our data, if they occured in-between our weather recording intervals... More about our weather records

Advertising

Arth weather history for previous 24 hours

 ConditionsComfort  
Time TempWeatherWind HumidityBarometerVisibility
2:00 AM
Thu, Mar 5
35 °FChilly.3 mph83%30.55 "HgN/A
1:00 AM35 °FPassing clouds.16 mph89%30.53 "Hg9 mi
12:00 AM38 °FChilly.8 mph79%30.50 "HgN/A
11:00 PM
Wed, Mar 4
35 °FChilly.3 mph85%30.50 "HgN/A
9:00 PM35 °FChilly.9 mph84%30.47 "HgN/A
8:00 PM36 °FChilly.3 mph89%30.45 "HgN/A
7:00 PM36 °FLight snow. Low clouds.2 mph87%30.43 "Hg4 mi
6:00 PM37 °FChilly.1 mph80%30.42 "HgN/A
5:00 PM36 °FChilly.6 mph85%30.40 "HgN/A
4:00 PM40 °FOvercast.15 mph69%30.36 "Hg10 mi
3:00 PM41 °FQuite cool.16 mph65%30.34 "HgN/A
2:00 PM42 °FQuite cool.10 mph64%30.35 "HgN/A
1:00 PM41 °FOvercast.9 mph72%30.37 "Hg10 mi
12:00 PM39 °FChilly.6 mph79%30.37 "HgN/A
11:00 AM38 °FChilly.5 mph82%30.38 "HgN/A
10:00 AM38 °FLight rain. Low clouds.7 mph88%30.37 "Hg9 mi
9:00 AM37 °FChilly.5 mph89%30.37 "HgN/A
8:00 AM37 °FChilly.8 mph87%30.36 "HgN/A
7:00 AM38 °FLight rain. Overcast.12 mph86%30.33 "Hg9 mi
6:00 AM39 °FChilly.16 mph84%30.31 "HgN/A
5:00 AM41 °FQuite cool.9 mph84%30.27 "HgN/A
Weather by CustomWeather, © 2015

See weather overviewHow to use our weather pages